Time,TemperatureF,DewpointF,PressureIn,WindDirection,WindDirectionDegrees,WindSpeedMPH,WindSpeedGustMPH,Humidity,HourlyPrecipIn,Conditions,Clouds,dailyrainin,SolarRadiationWatts/m^2,SoftwareType,DateUTC
2013-03-07 00:01:00,64.0,39.0,-100.00,WNW,284,8.0,20.0,40,0.00,,,0.00,0.000000,,2013-03-07 07:01:00,
2013-03-07 00:32:00,63.0,40.0,-100.00,West,279,9.0,17.0,43,0.00,,,0.00,0.000000,,2013-03-07 07:32:00,
2013-03-07 00:43:00,63.0,40.0,-100.00,West,279,9.0,17.0,43,0.00,,,0.00,0.000000,,2013-03-07 07:43:00,
2013-03-07 00:52:00,63.0,40.0,-100.00,West,279,9.0,17.0,43,0.00,,,0.00,0.000000,,2013-03-07 07:52:00,
2013-03-07 01:01:00,63.0,40.0,-100.00,West,279,9.0,17.0,43,0.00,,,0.00,0.000000,,2013-03-07 08:01:00,
2013-03-07 01:34:00,60.0,40.0,-100.00,WNW,294,8.0,16.0,47,0.00,,,0.00,0.000000,,2013-03-07 08:34:00,
2013-03-07 01:44:00,60.0,40.0,-100.00,WNW,294,8.0,16.0,47,0.00,,,0.00,0.000000,,2013-03-07 08:44:00,
2013-03-07 01:53:00,60.0,40.0,-100.00,WNW,294,8.0,16.0,47,0.00,,,0.00,0.000000,,2013-03-07 08:53:00,
2013-03-07 02:02:00,60.0,40.0,-100.00,WNW,294,8.0,16.0,47,0.00,,,0.00,0.000000,,2013-03-07 09:02:00,
2013-03-07 02:43:00,60.0,43.0,-100.00,North,6,3.0,13.0,54,0.00,,,-99.99,0.000000,,2013-03-07 09:43:00,
2013-03-07 02:53:00,60.0,43.0,-100.00,North,6,3.0,13.0,54,0.00,,,-99.99,0.000000,,2013-03-07 09:53:00,
2013-03-07 03:02:00,60.0,43.0,-100.00,North,6,3.0,13.0,54,0.00,,,-99.99,0.000000,,2013-03-07 10:02:00,
2013-03-07 03:33:00,54.0,40.0,-100.00,NNW,346,2.0,11.0,59,0.00,,,0.00,0.000000,,2013-03-07 10:33:00,
2013-03-07 03:43:00,54.0,40.0,-100.00,NNW,346,2.0,11.0,59,0.00,,,0.00,0.000000,,2013-03-07 10:43:00,
2013-03-07 03:52:00,54.0,40.0,-100.00,NNW,346,2.0,11.0,59,0.00,,,0.00,0.000000,,2013-03-07 10:52:00,
2013-03-07 04:02:00,54.0,40.0,-100.00,NNW,346,2.0,11.0,59,0.00,,,0.00,0.000000,,2013-03-07 11:02:00,
2013-03-07 04:34:00,54.0,41.0,-100.00,NW,325,3.0,5.0,61,0.00,,,0.00,0.000000,,2013-03-07 11:34:00,
2013-03-07 04:43:00,54.0,41.0,-100.00,NW,325,3.0,5.0,61,0.00,,,0.00,0.000000,,2013-03-07 11:43:00,
2013-03-07 04:53:00,54.0,41.0,-100.00,NW,325,3.0,5.0,61,0.00,,,0.00,0.000000,,2013-03-07 11:53:00,
2013-03-07 05:02:00,54.0,41.0,-100.00,NW,325,3.0,5.0,61,0.00,,,0.00,0.000000,,2013-03-07 12:02:00,
2013-03-07 05:34:00,54.0,42.0,-100.00,NW,324,3.0,5.0,63,0.00,,,0.00,0.000000,,2013-03-07 12:34:00,
2013-03-07 05:43:00,54.0,42.0,-100.00,NW,324,3.0,5.0,63,0.00,,,0.00,0.000000,,2013-03-07 12:43:00,
2013-03-07 05:52:00,54.0,42.0,-100.00,NW,324,3.0,5.0,63,0.00,,,0.00,0.000000,,2013-03-07 12:52:00,
2013-03-07 06:02:00,54.0,42.0,-100.00,NW,324,3.0,5.0,63,0.00,,,0.00,0.000000,,2013-03-07 13:02:00,
2013-03-07 07:33:00,51.0,41.0,-100.00,North,2,2.0,4.0,69,-99.99,,,0.00,0.000000,,2013-03-07 14:33:00,
2013-03-07 07:43:00,51.0,41.0,-100.00,North,2,2.0,4.0,69,-99.99,,,0.00,0.000000,,2013-03-07 14:43:00,
2013-03-07 07:53:00,51.0,41.0,-100.00,North,2,2.0,4.0,69,-99.99,,,0.00,0.000000,,2013-03-07 14:53:00,
2013-03-07 08:02:00,51.0,41.0,-100.00,North,2,2.0,4.0,69,-99.99,,,0.00,0.000000,,2013-03-07 15:02:00,
2013-03-07 08:33:00,51.0,35.0,-100.00,NW,308,3.0,6.0,54,0.00,,,0.00,1.000000,,2013-03-07 15:33:00,
2013-03-07 08:43:00,51.0,35.0,-100.00,NW,308,3.0,6.0,54,0.00,,,0.00,1.000000,,2013-03-07 15:43:00,
2013-03-07 08:52:00,51.0,35.0,-100.00,NW,308,3.0,6.0,54,0.00,,,0.00,1.000000,,2013-03-07 15:52:00,
2013-03-07 09:01:00,51.0,35.0,-100.00,NW,308,3.0,6.0,54,0.00,,,0.00,1.000000,,2013-03-07 16:01:00,
2013-03-07 09:33:00,57.0,35.0,-100.00,NW,325,6.0,6.0,43,0.00,,,0.00,63.000000,,2013-03-07 16:33:00,
2013-03-07 09:43:00,57.0,35.0,-100.00,NW,325,6.0,6.0,43,0.00,,,0.00,63.000000,,2013-03-07 16:43:00,
2013-03-07 09:53:00,57.0,35.0,-100.00,NW,325,6.0,6.0,43,0.00,,,0.00,63.000000,,2013-03-07 16:53:00,
2013-03-07 10:44:00,64.0,35.0,-100.00,NW,315,10.0,10.0,34,-99.99,,,0.00,305.000000,,2013-03-07 17:44:00,
2013-03-07 10:54:00,64.0,35.0,-100.00,NW,315,10.0,10.0,34,-99.99,,,0.00,305.000000,,2013-03-07 17:54:00,
2013-03-07 11:02:00,64.0,35.0,-100.00,NW,315,10.0,10.0,34,-99.99,,,0.00,305.000000,,2013-03-07 18:02:00,
2013-03-07 11:32:00,67.0,34.0,-100.00,NW,315,7.0,15.0,29,0.00,,,0.00,593.000000,,2013-03-07 18:32:00,
2013-03-07 11:42:00,67.0,34.0,-100.00,NW,315,7.0,15.0,29,0.00,,,0.00,593.000000,,2013-03-07 18:42:00,
2013-03-07 11:52:00,67.0,34.0,-100.00,NW,315,7.0,15.0,29,0.00,,,0.00,593.000000,,2013-03-07 18:52:00,
2013-03-07 12:02:00,67.0,34.0,-100.00,NW,315,7.0,15.0,29,0.00,,,0.00,593.000000,,2013-03-07 19:02:00,
2013-03-07 12:35:00,72.0,33.0,-100.00,WNW,291,7.0,15.0,24,0.00,,,0.00,768.000000,,2013-03-07 19:35:00,
2013-03-07 12:44:00,72.0,33.0,-100.00,WNW,291,7.0,15.0,24,0.00,,,0.00,768.000000,,2013-03-07 19:44:00,
2013-03-07 12:52:00,72.0,33.0,-100.00,WNW,291,7.0,15.0,24,0.00,,,0.00,768.000000,,2013-03-07 19:52:00,
2013-03-07 13:01:00,72.0,33.0,-100.00,WNW,291,7.0,15.0,24,0.00,,,0.00,768.000000,,2013-03-07 20:01:00,
2013-03-07 13:43:00,73.0,30.0,-100.00,NW,325,3.0,14.0,20,0.00,,,0.00,906.000000,,2013-03-07 20:43:00,
2013-03-07 13:53:00,73.0,30.0,-100.00,NW,325,3.0,14.0,20,0.00,,,0.00,906.000000,,2013-03-07 20:53:00,
2013-03-07 14:02:00,73.0,30.0,-100.00,NW,325,3.0,14.0,20,0.00,,,0.00,906.000000,,2013-03-07 21:02:00,
2013-03-07 14:33:00,77.0,33.0,-100.00,SSW,206,6.0,12.0,20,0.00,,,0.00,1013.000000,,2013-03-07 21:33:00,
2013-03-07 14:43:00,77.0,33.0,-100.00,SSW,206,6.0,12.0,20,0.00,,,0.00,1013.000000,,2013-03-07 21:43:00,
2013-03-07 14:52:00,77.0,33.0,-100.00,SSW,206,6.0,12.0,20,0.00,,,0.00,1013.000000,,2013-03-07 21:52:00,
2013-03-07 15:01:00,77.0,33.0,-100.00,SSW,206,6.0,12.0,20,0.00,,,0.00,1013.000000,,2013-03-07 22:01:00,
2013-03-07 15:33:00,76.0,33.0,-100.00,SSW,203,8.0,13.0,21,0.00,,,0.00,997.000000,,2013-03-07 22:33:00,
2013-03-07 15:43:00,76.0,33.0,-100.00,SSW,203,8.0,13.0,21,0.00,,,0.00,997.000000,,2013-03-07 22:43:00,
2013-03-07 15:54:00,76.0,33.0,-100.00,SSW,203,8.0,13.0,21,0.00,,,0.00,997.000000,,2013-03-07 22:54:00,
2013-03-07 16:02:00,76.0,33.0,-100.00,SSW,203,8.0,13.0,21,0.00,,,0.00,997.000000,,2013-03-07 23:02:00,
2013-03-07 16:34:00,76.0,37.0,-100.00,SW,221,6.0,13.0,24,0.00,,,0.00,773.000000,,2013-03-07 23:34:00,
2013-03-07 16:44:00,76.0,37.0,-100.00,SW,221,6.0,13.0,24,0.00,,,0.00,773.000000,,2013-03-07 23:44:00,
2013-03-07 16:53:00,76.0,37.0,-100.00,SW,221,6.0,13.0,24,0.00,,,0.00,773.000000,,2013-03-07 23:53:00,
2013-03-07 17:02:00,76.0,37.0,-100.00,SW,221,6.0,13.0,24,0.00,,,0.00,773.000000,,2013-03-08 00:02:00,
2013-03-07 17:34:00,74.0,38.0,-100.00,NW,304,7.0,13.0,27,0.00,,,0.00,381.000000,,2013-03-08 00:34:00,
2013-03-07 17:44:00,74.0,38.0,-100.00,NW,304,7.0,13.0,27,0.00,,,0.00,381.000000,,2013-03-08 00:44:00,
2013-03-07 17:53:00,74.0,38.0,-100.00,NW,304,7.0,13.0,27,0.00,,,0.00,381.000000,,2013-03-08 00:53:00,
2013-03-07 18:01:00,74.0,38.0,-100.00,NW,304,7.0,13.0,27,0.00,,,0.00,381.000000,,2013-03-08 01:01:00,
2013-03-07 18:33:00,71.0,37.0,-100.00,NW,317,11.0,11.0,29,0.00,,,0.00,224.000000,,2013-03-08 01:33:00,
2013-03-07 18:42:00,71.0,37.0,-100.00,NW,317,11.0,11.0,29,0.00,,,0.00,224.000000,,2013-03-08 01:42:00,
2013-03-07 18:52:00,71.0,37.0,-100.00,NW,317,11.0,11.0,29,0.00,,,0.00,224.000000,,2013-03-08 01:52:00,
2013-03-07 19:01:00,71.0,37.0,-100.00,NW,317,11.0,11.0,29,0.00,,,0.00,224.000000,,2013-03-08 02:01:00,
2013-03-07 19:32:00,68.0,37.0,-100.00,NW,311,14.0,19.0,32,0.00,,,0.00,70.000000,,2013-03-08 02:32:00,
2013-03-07 19:42:00,68.0,37.0,-100.00,NW,311,14.0,19.0,32,0.00,,,0.00,70.000000,,2013-03-08 02:42:00,
2013-03-07 19:52:00,68.0,37.0,-100.00,NW,311,14.0,19.0,32,0.00,,,0.00,70.000000,,2013-03-08 02:52:00,
2013-03-07 20:01:00,68.0,37.0,-100.00,NW,311,14.0,19.0,32,0.00,,,0.00,70.000000,,2013-03-08 03:01:00,
2013-03-07 20:33:00,66.0,38.0,-100.00,NW,309,11.0,20.0,35,0.00,,,0.00,5.000000,,2013-03-08 03:33:00,
2013-03-07 20:43:00,66.0,38.0,-100.00,NW,309,11.0,20.0,35,0.00,,,0.00,5.000000,,2013-03-08 03:43:00,
2013-03-07 20:52:00,66.0,38.0,-100.00,NW,309,11.0,20.0,35,0.00,,,0.00,5.000000,,2013-03-08 03:52:00,
2013-03-07 21:01:00,66.0,38.0,-100.00,NW,309,11.0,20.0,35,0.00,,,0.00,5.000000,,2013-03-08 04:01:00,
2013-03-07 21:32:00,64.0,37.0,-100.00,NW,313,12.0,21.0,37,0.00,,,0.00,0.000000,,2013-03-08 04:32:00,
2013-03-07 21:42:00,64.0,37.0,-100.00,NW,313,12.0,21.0,37,0.00,,,0.00,0.000000,,2013-03-08 04:42:00,
2013-03-07 21:52:00,64.0,37.0,-100.00,NW,313,12.0,21.0,37,0.00,,,0.00,0.000000,,2013-03-08 04:52:00,
2013-03-07 22:01:00,64.0,37.0,-100.00,NW,313,12.0,21.0,37,0.00,,,0.00,0.000000,,2013-03-08 05:01:00,
2013-03-07 22:33:00,63.0,36.0,-100.00,NW,316,8.0,18.0,37,0.00,,,0.00,0.000000,,2013-03-08 05:33:00,
2013-03-07 22:42:00,63.0,36.0,-100.00,NW,316,8.0,18.0,37,0.00,,,0.00,0.000000,,2013-03-08 05:42:00,
2013-03-07 22:52:00,63.0,36.0,-100.00,NW,316,8.0,18.0,37,0.00,,,0.00,0.000000,,2013-03-08 05:52:00,
2013-03-07 23:01:00,63.0,36.0,-100.00,NW,316,8.0,18.0,37,0.00,,,0.00,0.000000,,2013-03-08 06:01:00,
2013-03-07 23:32:00,61.0,38.0,-100.00,North,355,5.0,14.0,42,0.00,,,0.00,0.000000,,2013-03-08 06:32:00,
2013-03-07 23:42:00,61.0,38.0,-100.00,North,355,5.0,14.0,42,0.00,,,0.00,0.000000,,2013-03-08 06:42:00,
2013-03-07 23:52:00,61.0,38.0,-100.00,North,355,5.0,14.0,42,0.00,,,0.00,0.000000,,2013-03-08 06:52:00,